Location: Athabasca
(54.7194°N, 113.2858°W)
Time: 10:09:10
(UTC+00:00)

PRISM - Pass Details

Date: 30 November 2023
Orbit: 515 x 532 km, 98.2° (Epoch: 04 March)

Event Time Altitude Azimuth Distance (km) Brightness Sun altitude
Exits shadow 02:22:48 22° 340° (NNW) 1,247 ? -26.2°
Drops below altitude 10° 02:24:14 10° 343° (NNW) 1,832 ? -26.4°
Sets 02:26:22 0° 344° (NNW) 2,725 ? -26.7°
